This demonstration page uses our WeatherBlox Daily Observations layout. Learn more.

Left ArrowRight Arrow

41.12389, -100.76542

Hourly Observations for December 24, 2016

Temp ( °F °C ) Dew Point ( °F °C ) Humidity (%) Winds ( mph kmh ) Pressure ( in mb ) Visibility ( mi km ) Precip ( " mm )
12:53 am 00:53 Clear 8 -13.3 2 -16.7 76 76 WNW 5 7 30.05 1018 10 16 0.00 0.00
1:53 am 01:53 Clear 9 -12.8 4 -15.6 80 80 W 5 7 30.04 1017 10 16 0.00 0.00
2:53 am 02:53 Clear 6 -14.4 0 -17.8 76 76 WNW 8 13 30.06 1018 10 16 0.00 0.00
3:53 am 03:53 Clear 7 -13.9 2 -16.7 80 80 ENE 5 7 30.03 1017 10 16 0.00 0.00
4:53 am 04:53 Clear 11 -11.7 7 -13.9 84 84 Calm 30.05 1018 10 16 0.00 0.00
5:53 am 05:53 Clear 12 -11.1 7 -13.9 80 80 Calm 30.08 1019 10 16 0.00 0.00
6:53 am 06:53 Clear 11 -11.7 5 -15 77 77 Calm 30.10 1019 10 16 0.00 0.00
7:53 am 07:53 Clear 11 -11.7 6 -14.4 81 81 Calm 30.10 1019 10 16 0.00 0.00
8:53 am 08:53 Sunny 14 -10 9 -12.8 80 80 ENE 7 11 30.10 1019 10 16 0.00 0.00
9:53 am 09:53 Sunny 28 -2.2 16 -8.9 60 60 E 6 9 30.09 1019 10 16 0.00 0.00
10:53 am 10:53 Sunny 33 0.6 18 -7.8 54 54 ESE 7 11 30.09 1019 10 16 0.00 0.00
11:53 am 11:53 Sunny 46 7.8 18 -7.8 32 32 S 17 28 30.02 1017 10 16 0.00 0.00
12:53 pm 12:53 Sunny 48 8.9 18 -7.8 30 30 SSE 14 22 29.98 1015 10 16 0.00 0.00
1:53 pm 13:53 Sunny 50 10 21 -6.1 32 32 S 14 22 29.94 1014 10 16 0.00 0.00
2:53 pm 14:53 Sunny 50 10 22 -5.6 33 33 S 10 17 29.94 1014 10 16 0.00 0.00
3:53 pm 15:53 Sunny 47 8.3 24 -4.4 41 41 SE 12 19 29.95 1014 10 16 0.00 0.00
4:53 pm 16:53 Sunny 44 6.7 25 -3.9 47 47 ESE 10 17 29.93 1013 10 16 0.00 0.00
5:53 pm 17:53 Clear 36 2.2 26 -3.3 67 67 ESE 12 19 29.95 1014 10 16 0.00 0.00
6:53 pm 18:53 Clear 32 0 25 -3.9 75 75 E 10 17 29.95 1014 10 16 0.00 0.00
7:53 pm 19:53 Clear 31 -0.6 26 -3.3 82 82 ESE 10 17 29.96 1014 10 16 0.00 0.00
8:53 pm 20:53 Clear 29 -1.7 26 -3.3 89 89 ESE 10 17 29.93 1014 10 16 0.00 0.00
9:53 pm 21:53 Clear 27 -2.8 24 -4.4 89 89 E 8 13 29.90 1012 10 16 0.00 0.00
10:53 pm 22:53 Clear 28 -2.2 26 -3.3 92 92 ESE 14 22 29.87 1012 9 14 0.00 0.00
11:53 pm 23:53 Clear 28 -2.2 26 -3.3 92 92 ESE 14 22 29.84 1010 9 14 0.00 0.00

Powered by AerisWeather